Weather History for Subic Bay, Philippines

Change the Weather History Date:

Monday, May 12, 2014

  Actual Average Record
Temperature  
Mean Temperature 90 °F -  
Max Temperature 99 °F 88 °F 99 °F (2014)
Min Temperature 81 °F 76 °F -25 °F (2000)
Cooling Degree Days 25    
Growing Degree Days 40 (Base 50)    
Moisture  
Dew Point 72 °F    
Average Humidity 57    
Maximum Humidity 74    
Minimum Humidity 28    
Precipitation  
Precipitation 0.00 in - - ()
Sea Level Pressure  
Sea Level Pressure 29.82 in    
Wind  
Wind Speed 7 mph ()    
Max Wind Speed 13 mph    
Max Gust Speed -    
Visibility 7.7 miles    
Events      
Averages and records for this station are not official NWS values.
T = Trace of Precipitation, MM = Missing Value Source: Averaged Metar Reports

Daily Weather History Graph

Daily Weather History Graph

Search for Another Location

Airport:

Trip Planner

Search our weather history database for the weather conditions in past years. The results will help you decide how hot, cold, wet, or windy it might be!

Date:

Astronomy

May. 12, 2014 Rise Set
Actual Time 5:31 AM PHT 6:18 PM PHT
Civil Twilight 5:09 AM PHT 6:41 PM PHT
Nautical Twilight 4:42 AM PHT 7:08 PM PHT
Astronomical Twilight 4:15 AM PHT 7:35 PM PHT
Moon 4:04 PM PHT (5/12) 3:22 AM PHT (5/12)
Length of Visible Light 13h 32m
Length of Day
12h 46m
Waxing Gibbous, 92% of the Moon is Illuminated
May 12
Waxing Gibbous
May 15
Full
May 21
Last Quarter
May 29
New
Jun 6
First Quarter

Hourly Weather History & Observations

Time (PHT) Temp. Heat Index Dew Point Humidity Pressure Visibility Wind Dir Wind Speed Gust Speed Precip Events Conditions
2:00 AM 83 °F - 73 °F 64% 29.83 in 11 mi East 6.7 mph - -   Haze
2:00 AM 82.4 °F 88.2 °F 73.4 °F 74% 29.83 in 6.2 mi East 6.9 mph - N/A   Partly Cloudy
5:00 AM 82 °F - 73 °F 67% 29.81 in 11 mi East 11.2 mph - -   Haze
5:00 AM 82.4 °F 88.2 °F 73.4 °F 74% 29.80 in 6.2 mi East 11.5 mph - N/A   Mostly Cloudy
6:00 AM 82.4 °F 88.2 °F 73.4 °F 74% 29.80 in 6.2 mi ENE 12.7 mph - N/A   Mostly Cloudy
7:00 AM 84.2 °F 90.9 °F 73.4 °F 70% 29.80 in 6.2 mi ENE 10.4 mph - N/A   Partly Cloudy
8:00 AM 87 °F - 73 °F 55% 29.84 in 11 mi ENE 13.4 mph - -   Haze
8:00 AM 86.0 °F 93.4 °F 73.4 °F 66% 29.83 in 6.2 mi ENE 12.7 mph - N/A   Partly Cloudy
9:00 AM 87.8 °F 95.6 °F 73.4 °F 62% 29.86 in 6.2 mi ENE 8.1 mph - N/A   Scattered Clouds
10:00 AM 91.4 °F 98.4 °F 71.6 °F 52% 29.86 in 6.2 mi ENE 10.4 mph - N/A   Mostly Cloudy
11:00 AM 96 °F - 71 °F 35% 29.85 in 11 mi NE 6.7 mph - -   Haze
11:00 AM 95.0 °F 103.2 °F 71.6 °F 47% 29.83 in 6.2 mi NE 6.9 mph - N/A   Scattered Clouds
12:00 PM 98.6 °F 107.7 °F 71.6 °F 42% 29.83 in 6.2 mi NE 8.1 mph - N/A   Mostly Cloudy
1:00 PM 98.6 °F 107.7 °F 71.6 °F 42% 29.80 in 6.2 mi East 8.1 mph - N/A   Mostly Cloudy
2:00 PM 99 °F - 69 °F 28% 29.78 in 12 mi ESE 8.9 mph - -   Haze
2:00 PM 98.6 °F 105.5 °F 69.8 °F 39% 29.77 in 6.2 mi ESE 9.2 mph - N/A   Mostly Cloudy
3:00 PM 96.8 °F 105.1 °F 71.6 °F 44% 29.77 in 6.2 mi SW 11.5 mph - N/A   Mostly Cloudy
4:00 PM 96.8 °F 107.3 °F 73.4 °F 47% 29.77 in 6.2 mi SW 9.2 mph - N/A   Mostly Cloudy
5:00 PM 94 °F - 73 °F 42% 29.78 in 12 mi SW 8.9 mph - -   Haze
6:00 PM 89.6 °F 99.8 °F 75.2 °F 62% 29.80 in 6.2 mi North 6.9 mph - N/A   Mostly Cloudy
7:00 PM 87.8 °F 97.6 °F 75.2 °F 66% 29.80 in 6.2 mi WSW 6.9 mph - N/A   Partly Cloudy
8:00 PM 86 °F - 71 °F 52% 29.84 in 11 mi North 4.5 mph - -   Scattered Clouds
8:00 PM 86.0 °F 91.8 °F 71.6 °F 62% 29.83 in 6.2 mi Variable 3.5 mph - N/A   Partly Cloudy
9:00 PM 84.2 °F 90.9 °F 73.4 °F 70% 29.86 in 6.2 mi Variable 2.3 mph - N/A   Scattered Clouds
10:00 PM 86.0 °F 93.4 °F 73.4 °F 66% 29.86 in 6.2 mi ENE 2.3 mph - N/A   Partly Cloudy
11:00 PM 84 °F - 72 °F 61% 29.87 in 11 mi ESE 2.2 mph - -   Haze
11:00 PM 84.2 °F 89.6 °F 71.6 °F 66% 29.86 in 6.2 mi Variable 1.2 mph - N/A   Scattered Clouds